Weather Roundup
Issued by NWS Chicago, IL

Home | Current Version | Previous Version | Text Only | Print | Product List | Glossary Off
Versions: 1 2 3 4 5 6 7 8 9 10 11 12 13 14 15 16 17 18 19 20 21 22 23 24 25 26 27 28 29 30 31 32 33 34 35 36 37 38 39 40 41 42 43 44 45 46 47 48 49 50

899
NZUS59 KLOT 050908
HRRLOT

CHICAGO AREA WEATHER ROUNDUP
NATIONAL WEATHER SERVICE CHICAGO/ROMEOVILLE IL
400 AM CDT THU MAY 05 2016

NOTE: "FAIR" INDICATES FEW OR NO CLOUDS BELOW 12,000 FEET WITH NO
SIGNIFICANT WEATHER AND/OR OBSTRUCTIONS TO VISIBILITY.

* THESE STATIONS ARE NOT UNDER NWS QUALITY CONTROL. THEY ALSO MAY NOT
  REPORT WEATHER SUCH AS PRECIPITATION OR FOG.

ILZ005-006-012>014-019>023-051000-
NORTHEAST ILLINOIS

CITY           SKY/WX    TMP DP  RH WIND       PRES   REMARKS
OHARE          CLOUDY    43  33  68 N16       29.88S
MIDWAY         DRIZZLE   43  33  68 N20G30    29.88S
AURORA         CLOUDY    41  35  79 N13       29.90S
LANSING*       CLOUDY    41  36  80 N14G23    29.87S
JOLIET*        CLOUDY    44  35  70 N10       29.89R
WAUKEGAN       CLOUDY    42  33  70 N10G22    29.90S
DUPAGE AIRPORT CLOUDY    42  33  70 N10       29.89S
WHEELING       CLOUDY    43  33  68 N12       29.90S
KANKAKEE*      CLOUDY    43  35  74 N13       29.87R
MORRIS*        CLOUDY    40  35  83 CALM      29.89R
LEWIS AIRPORT* CLOUDY    42  33  69 N13       29.88R
$$

WIZ051-052-058>065-066-070>072-051000-
SOUTHEAST WISCONSIN

CITY           SKY/WX    TMP DP  RH WIND       PRES   REMARKS
MILWAUKEE      PTCLDY    41  32  70 N14G22    29.92R
KENOSHA*       MOCLDY    41  32  70 N10       29.91S
RACINE*        PTCLDY    41  32  70 N14G25    29.93R
BURLINGTON     CLOUDY    37  32  81 N7        29.93R
WAUKESHA       CLEAR     34  30  86 N6        29.94S WCI  29
WEST BEND      PTCLDY    36  32  87 N6        29.94R
$$

INZ001>003-010>013-019-020-051000-
NORTHWEST INDIANA

CITY           SKY/WX    TMP DP  RH WIND       PRES   REMARKS
GARY*          CLOUDY    43  43 100 N21G29    29.87S
MICHIGAN CITY* NOT AVBL
RENSSELAER*    NOT AVBL
VALPARAISO     CLOUDY    41  38  89 N15G22    29.83R
$$

LMZ740>746-051000-
SOUTHERN LAKE MICHIGAN

STATION/POSITION TIME  SKY/WX   TEMP WIND        PRES    VSBY
                                AIR  DIR/SP/G
                 (UTC)          (F)  (DEG/KT/KT) (MB)    (MI)
HARRISON CRIB    0800            42  360/ 27/ 32   N/A
BURNHAM HARBOR   0900            42  350/ 16/ 24   N/A
CALUMET HARBOR   0800            42  340/ 21/ 29 1011.0S
BURNS HARBOR     0813            43   20/ 26     1010.8R
MICHIGAN CITY    0800            42  360/ 28/ 30   N/A
$$

ABBREVIATIONS USED IN REMARKS
   TC - TEMPERATURE IN CELSIUS
  WCI - WIND CHILL INDEX
   HX - HEAT INDEX
  VSB - VISIBILITY
$$




USA.gov is the U.S. government's official web portal to all federal, state and local government web resources and services.